Weather History for Toledo, OH

Change the Weather History Date:

Wednesday, December 12, 2012

  Actual Average Record
Temperature  
Mean Temperature 32 °F 30 °F  
Max Temperature 42 °F 37 °F 63 °F (1949)
Min Temperature 22 °F 24 °F -9 °F (1962)
Degree Days  
Heating Degree Days 33 34  
Month to date heating degree days 288 389  
Since 1 July heating degree days 1625 1622  
Cooling Degree Days 0 0  
Month to date cooling degree days 0 0  
Year to date cooling degree days 998 793  
Moisture  
Dew Point 22 °F    
Average Humidity 64    
Maximum Humidity 81    
Minimum Humidity 46    
Precipitation  
Precipitation 0.00 in 0.09 in 1.06 in (1972)
Month to date precipitation 0.58 1.08  
Year to date precipitation 28.77 32.64  
Snow  
Snow 0.00 in 0.20 in - ()
Month to date snowfall T 2.3  
Since 1 July snowfall T 4.4  
Snow Depth 0.00 in    
Sea Level Pressure  
Sea Level Pressure 30.34 in    
Wind  
Wind Speed 5 mph (SSW)    
Max Wind Speed 10 mph    
Max Gust Speed 15 mph    
Visibility 10 miles    
Events      
T = Trace of Precipitation, MM = Missing Value Source: NWS Daily Summary

Daily Weather History Graph

Daily Weather History Graph

Search for Another Location

Airport:

Trip Planner

Search our weather history database for the weather conditions in past years. The results will help you decide how hot, cold, wet, or windy it might be!

Date:

Astronomy

Dec. 12, 2012 Rise Set
Actual Time 7:53 AM EST 5:05 PM EST
Civil Twilight 7:21 AM EST 5:36 PM EST
Nautical Twilight 6:46 AM EST 6:11 PM EST
Astronomical Twilight 6:13 AM EST 6:45 PM EST
Moon 6:55 AM EST (12/12) 4:41 PM EST (12/12)
Length of Visible Light 10h 15m
Length of Day
9h 12m
Waning Crescent, 1% of the Moon is Illuminated
Dec 12
Waning Crescent
Dec 13
New
Dec 20
First Quarter
Dec 28
Full
Jan 4
Last Quarter

Hourly Weather History & Observations

Time (EST) Temp. Windchill Dew Point Humidity Pressure Visibility Wind Dir Wind Speed Gust Speed Precip Events Conditions
12:52 AM 28.0 °F 20.8 °F 21.9 °F 78% 30.22 in 10.0 mi SW 6.9 mph - N/A   Clear
1:52 AM 27.0 °F 21.6 °F 21.9 °F 81% 30.23 in 10.0 mi South 4.6 mph - N/A   Clear
2:52 AM 27.0 °F 20.5 °F 21.0 °F 78% 30.26 in 10.0 mi SW 5.8 mph - N/A   Clear
3:52 AM 26.1 °F 20.5 °F 21.0 °F 81% 30.27 in 10.0 mi SSW 4.6 mph - N/A   Clear
4:52 AM 26.1 °F 18.4 °F 21.0 °F 81% 30.28 in 10.0 mi SW 6.9 mph - N/A   Clear
5:52 AM 26.1 °F 18.4 °F 21.0 °F 81% 30.30 in 10.0 mi SSW 6.9 mph - N/A   Clear
6:52 AM 26.1 °F 18.4 °F 21.0 °F 81% 30.32 in 9.0 mi SSW 6.9 mph - N/A   Clear
7:52 AM 25.0 °F 17.1 °F 19.9 °F 81% 30.33 in 7.0 mi SSW 6.9 mph - N/A   Clear
8:52 AM 27.0 °F 19.5 °F 21.0 °F 78% 30.35 in 8.0 mi SSW 6.9 mph - N/A   Clear
9:52 AM 30.0 °F 21.1 °F 21.9 °F 72% 30.37 in 10.0 mi SW 10.4 mph - N/A   Clear
10:52 AM 34.0 °F 28.8 °F 23.0 °F 64% 30.38 in 10.0 mi SW 5.8 mph - N/A   Clear
11:52 AM 37.9 °F 33.5 °F 24.1 °F 57% 30.39 in 10.0 mi Variable 5.8 mph - N/A   Clear
12:52 PM 39.0 °F 34.0 °F 23.0 °F 53% 30.38 in 10.0 mi SW 6.9 mph - N/A   Clear
1:52 PM 41.0 °F 35.8 °F 23.0 °F 49% 30.37 in 10.0 mi South 8.1 mph - N/A   Clear
2:52 PM 41.0 °F 38.0 °F 23.0 °F 49% 30.36 in 10.0 mi SSW 4.6 mph - N/A   Clear
3:52 PM 39.9 °F 33.9 °F 24.1 °F 53% 30.36 in 10.0 mi South 9.2 mph - N/A   Clear
4:52 PM 37.9 °F 35.5 °F 23.0 °F 55% 30.37 in 10.0 mi South 3.5 mph - N/A   Clear
5:52 PM 33.1 °F - 23.0 °F 66% 30.38 in 10.0 mi Calm Calm - N/A   Clear
6:52 PM 30.0 °F 26.5 °F 23.0 °F 75% 30.39 in 10.0 mi South 3.5 mph - N/A   Clear
7:52 PM 28.0 °F 24.2 °F 23.0 °F 81% 30.40 in 10.0 mi SSW 3.5 mph - N/A   Clear
8:52 PM 28.0 °F 24.2 °F 21.9 °F 78% 30.40 in 10.0 mi South 3.5 mph - N/A   Clear
9:52 PM 26.1 °F - 21.9 °F 84% 30.40 in 10.0 mi Calm Calm - N/A   Clear
10:52 PM 24.1 °F - 19.9 °F 84% 30.41 in 10.0 mi Calm Calm - N/A   Clear
11:52 PM 24.1 °F 19.7 °F 21.0 °F 88% 30.40 in 10.0 mi South 3.5 mph - N/A   Clear